Weather History for Miami, FL

Change the Weather History Date:

Monday, December 30, 2013

  Actual Average Record
Temperature  
Mean Temperature 77 °F 69 °F  
Max Temperature 81 °F 77 °F 83 °F (1945)
Min Temperature 72 °F 61 °F 33 °F (1909)
Degree Days  
Heating Degree Days 0 2  
Month to date heating degree days 0 32  
Since 1 July heating degree days 2 35  
Cooling Degree Days 12 5  
Month to date cooling degree days 311 197  
Year to date cooling degree days 4852 4569  
Growing Degree Days 26 (Base 50)    
Moisture  
Dew Point 70 °F    
Average Humidity 85    
Maximum Humidity 100    
Minimum Humidity 69    
Precipitation  
Precipitation 0.00 in 0.06 in 2.17 in (1963)
Month to date precipitation 4.67 1.98  
Year to date precipitation 70.42 61.84  
Snow  
Snow 0.00 in - - ()
Month to date snowfall 0.0  
Since 1 July snowfall 0.0  
Snow Depth 0.00 in    
Sea Level Pressure  
Sea Level Pressure 30.07 in    
Wind  
Wind Speed 4 mph (NW)    
Max Wind Speed 9 mph    
Max Gust Speed 16 mph    
Visibility 9 miles    
Events      
T = Trace of Precipitation, MM = Missing Value Source: NWS Daily Summary

Daily Weather History Graph

Daily Weather History Graph

Search for Another Location

Airport:

Trip Planner

Search our weather history database for the weather conditions in past years. The results will help you decide how hot, cold, wet, or windy it might be!

Date:

Astronomy

Dec. 30, 2013 Rise Set
Actual Time 7:07 AM EST 5:40 PM EST
Civil Twilight 6:42 AM EST 6:05 PM EST
Nautical Twilight 6:13 AM EST 6:34 PM EST
Astronomical Twilight 5:45 AM EST 7:02 PM EST
Moon 5:00 AM EST (12/30) 4:07 PM EST (12/30)
Length of Visible Light 11h 23m
Length of Day
10h 33m
Waning Crescent, 5% of the Moon is Illuminated
Dec 30
Waning Crescent
Jan 1
New
Jan 7
First Quarter
Jan 15
Full
Jan 24
Last Quarter

Hourly Weather History & Observations

Time (EST) Temp. Heat Index Dew Point Humidity Pressure Visibility Wind Dir Wind Speed Gust Speed Precip Events Conditions
12:53 AM 73.0 °F - 72.0 °F 96% 30.03 in 10.0 mi SW 3.5 mph - N/A   Scattered Clouds
1:00 AM 73.4 °F - 71.6 °F 94% 30.02 in 10.0 mi SW 3.5 mph - N/A   Mostly Cloudy
1:12 AM 73.4 °F - 71.6 °F 94% 30.02 in 3.0 mi WSW 5.8 mph - N/A   Overcast
1:20 AM 73.4 °F - 73.4 °F 100% 30.02 in 1.8 mi West 3.5 mph - N/A   Mist
1:29 AM 73.4 °F - 71.6 °F 94% 30.02 in 1.2 mi WSW 5.8 mph - N/A   Mist
1:45 AM 73.4 °F - 71.6 °F 94% 30.02 in 1.8 mi West 3.5 mph - N/A   Mostly Cloudy
1:53 AM 73.0 °F - 73.0 °F 100% 30.02 in 1.8 mi WSW 3.5 mph - N/A   Mist
2:16 AM 73.4 °F - 71.6 °F 94% 30.01 in 4.0 mi SW 3.5 mph - N/A   Mostly Cloudy
2:26 AM 73.4 °F - 73.4 °F 100% 30.01 in 5.0 mi Calm Calm - N/A   Mostly Cloudy
2:53 AM 73.0 °F - 72.0 °F 96% 30.00 in 6.0 mi Calm Calm - N/A   Scattered Clouds
3:53 AM 72.0 °F - 71.1 °F 97% 30.00 in 10.0 mi West 3.5 mph - N/A   Scattered Clouds
4:53 AM 73.0 °F - 71.1 °F 93% 30.01 in 10.0 mi Calm Calm - N/A   Mostly Cloudy
5:53 AM 73.0 °F - 71.1 °F 93% 30.02 in 10.0 mi Calm Calm - N/A   Mostly Cloudy
6:53 AM 72.0 °F - 70.0 °F 93% 30.03 in 10.0 mi Calm Calm - N/A   Mostly Cloudy
7:53 AM 73.0 °F - 71.1 °F 93% 30.06 in 10.0 mi Calm Calm - N/A   Overcast
8:53 AM 75.0 °F - 71.1 °F 87% 30.08 in 10.0 mi Calm Calm - N/A   Overcast
9:41 AM 75.2 °F - 71.6 °F 89% 30.10 in 10.0 mi WNW 6.9 mph - N/A   Overcast
9:53 AM 73.9 °F - 71.1 °F 91% 30.11 in 10.0 mi NNW 5.8 mph - N/A   Overcast
9:54 AM 73.4 °F - 71.6 °F 94% 30.11 in 10.0 mi NNW 5.8 mph - N/A   Overcast
10:53 AM 72.0 °F - 69.1 °F 91% 30.12 in 7.0 mi NW 8.1 mph - N/A   Overcast
11:53 AM 73.9 °F - 69.1 °F 85% 30.10 in 7.0 mi North 4.6 mph - N/A   Mostly Cloudy
12:06 PM 73.4 °F - 69.8 °F 88% 30.09 in 10.0 mi NW 4.6 mph - N/A   Mostly Cloudy
12:53 PM 73.9 °F - 69.1 °F 85% 30.09 in 10.0 mi WNW 3.5 mph - N/A   Mostly Cloudy
1:53 PM 78.1 °F - 69.1 °F 74% 30.07 in 10.0 mi Calm Calm - N/A   Mostly Cloudy
2:53 PM 80.1 °F 83.2 °F 70.0 °F 71% 30.05 in 10.0 mi NW 4.6 mph - N/A   Mostly Cloudy
3:53 PM 79.0 °F - 69.1 °F 72% 30.06 in 10.0 mi WNW 4.6 mph - N/A   Mostly Cloudy
4:53 PM 78.1 °F - 68.0 °F 71% 30.07 in 10.0 mi Variable 4.6 mph - N/A   Overcast
5:53 PM 77.0 °F - 68.0 °F 74% 30.08 in 10.0 mi NNE 6.9 mph - N/A   Mostly Cloudy
6:49 PM 75.2 °F - 66.2 °F 73% 30.09 in 10.0 mi NNW 5.8 mph - N/A   Overcast
6:53 PM 75.0 °F - 66.9 °F 76% 30.10 in 10.0 mi North 8.1 mph - N/A   Overcast
7:44 PM 73.4 °F - 66.2 °F 78% 30.10 in 10.0 mi Variable 5.8 mph - N/A   Mostly Cloudy
7:53 PM 73.9 °F - 66.9 °F 79% 30.10 in 10.0 mi NNE 4.6 mph - N/A   Mostly Cloudy
8:53 PM 73.0 °F - 68.0 °F 84% 30.12 in 10.0 mi East 3.5 mph - N/A   Scattered Clouds
9:53 PM 73.9 °F - 69.1 °F 85% 30.13 in 10.0 mi NNE 3.5 mph - N/A   Overcast
10:53 PM 73.9 °F - 69.1 °F 85% 30.14 in 10.0 mi North 5.8 mph - N/A   Overcast
11:26 PM 73.4 °F - 68.0 °F 83% 30.14 in 10.0 mi North 6.9 mph - N/A   Overcast
11:53 PM 73.0 °F - 68.0 °F 84% 30.13 in 10.0 mi North 6.9 mph - N/A   Overcast